Home   Weather   Minas   Past weeks

Flag for Uruguay Past Weather in Minas, Uruguay — Yesterday and Last 2 Weeks

Now
90 °F

Sunny.


Feels Like: 86 °F
Forecast: N/A
Wind: 22 mph from Northwest

Location: Capitan Corbeta

Current Time: Dec 10, 2016 at 7:17:16 pm

Latest Report: Dec 10, 2016 at 6:00 pm


Visibility: 10 mi

Pressure: 29.47 "Hg

Humidity: 24%

Dew Point: 48 °F

Location of MinasLocation

Past Weather in Minas — Graph

°F

Minas Temperature Yesterday

Maximum temperature yesterday: 75 °F (at 1:00 pm)
Minimum temperature yesterday: 46 °F (at 5:00 am)
Average temperature yesterday: 62 °F

High & Low Weather Summary for the Past Weeks

 TemperatureHumidityPressure
High90 °F (Dec 10, 3:00 pm)100% (Nov 29, 3:00 am)30.21 "Hg (Nov 29, 3:00 am)
Low46 °F (Dec 9, 5:00 am)24% (Dec 10, 3:00 pm)29.47 "Hg (Dec 10, 5:00 pm)
Average69 °F71%29.90 "Hg
* Reported Nov 25 6:00 pm — Dec 10 6:00 pm, Minas, Weather by CustomWeather, © 2016

Note: Actual official high and low records may vary slightly from our data, if they occured in-between our weather recording intervals... More about our weather records

Advertising

Minas Weather History for the Previous 24 Hours

Scroll right to see more
 ConditionsComfort  
Time TempWeatherWind HumidityBarometerVisibility
6:00 pm
Sat, Dec 10
90 °FSunny.22 mph24%29.47 "Hg10 mi
5:00 pm90 °FSunny.20 mph24%29.47 "Hg10 mi
4:00 pm90 °FSunny.21 mph24%29.50 "Hg10 mi
3:00 pm90 °FSunny.17 mph24%29.56 "Hg10 mi
2:00 pm88 °FSunny.20 mph29%29.56 "Hg10 mi
1:00 pm86 °FSunny.15 mph31%29.62 "Hg10 mi
12:00 pm84 °FSunny.15 mph33%29.65 "Hg10 mi
11:00 am81 °FSunny.16 mph37%29.68 "Hg10 mi
10:00 am79 °FSunny.16 mph45%29.68 "Hg10 mi
9:00 am75 °FSunny.15 mph54%29.71 "Hg10 mi
8:00 am72 °FSunny.10 mph61%29.74 "Hg10 mi
7:00 am64 °FSunny.9 mph73%29.74 "Hg10 mi
6:00 am59 °FSunny.7 mph82%29.74 "Hg10 mi
5:00 am59 °FClear.7 mph82%29.74 "Hg10 mi
4:00 am61 °FClear.8 mph72%29.77 "Hg10 mi
3:00 am61 °FClear.8 mph72%29.74 "Hg10 mi
1:00 am63 °FClear.8 mph64%29.80 "Hg10 mi
12:00 am63 °FClear.5 mph73%29.80 "Hg10 mi
11:00 pm
Fri, Dec 9
64 °FClear.5 mph73%29.80 "Hg10 mi
10:00 pm64 °FClear.6 mph73%29.80 "Hg10 mi
9:00 pm64 °FClear.2 mph73%29.80 "Hg10 mi
8:00 pm66 °FClear.6 mph64%29.77 "Hg10 mi
7:00 pm72 °FSunny.6 mph50%29.80 "Hg10 mi
Weather by CustomWeather, © 2016

See weather overviewHow to use our weather pages